Date String (YYYY-MM-DD hh:mm:ss) UTC,Instrument flags,Ambient pressure (hPa),Sample flow (lpm),Bypass flow (lpm),Sample temperature (°C),Ambient temperature (°C),ASC tube jacket temperature (°C),LED temperature (°C),Box temperature (°C),Sample RH (%),Span deviation,Mass concentration (μg/m³),Mass concentration (μg/m³),Mass concentration (μg/m³)
DateTimeUTC,F1_M11,P_M11,Q1_M11,Q2_M11,T1_M11,T2_M11,T3_M11,T4_M11,T5_M11,U1_M11,ZSPAN_M11,X0_M11,X2_M11,X1_M11
2023-03-11 17:00:00,,0816.2,5.01,0.00,23.4,21.9,00.0,32.1,25.2,13.9,0000.0,0004.90,0001.53,0000.99
2023-03-11 17:01:00,,0816.2,5.00,0.00,23.4,21.9,00.0,32.1,25.2,13.5,0000.0,0005.13,0001.54,0000.98
2023-03-11 17:02:00,,0816.3,5.01,0.00,23.4,21.9,00.0,32.1,25.2,13.4,0000.0,0005.00,0001.50,0000.97
2023-03-11 17:03:00,,0816.3,5.00,0.00,23.4,21.9,00.0,32.1,25.2,13.5,0000.0,0004.91,0001.46,0000.95
2023-03-11 17:04:00,,0816.3,5.01,0.00,23.4,21.9,00.0,32.1,25.2,13.4,0000.0,0004.88,0001.46,0000.95
2023-03-11 17:05:00,,0816.4,5.00,0.00,23.4,21.9,00.0,32.1,25.2,13.4,0000.0,0005.67,0001.45,0000.94
2023-03-11 17:06:00,,0816.4,5.00,0.00,23.4,22.0,00.0,32.1,25.2,13.5,0000.0,0006.87,0001.42,0000.95
2023-03-11 17:07:00,,0816.4,5.00,0.00,23.4,22.0,00.0,32.1,25.2,13.5,0000.0,0005.88,0001.42,0000.95
2023-03-11 17:08:00,,0816.4,5.00,0.00,23.4,22.0,00.0,32.1,25.2,13.3,0000.0,0006.15,0001.50,0000.97
2023-03-11 17:09:00,,0816.4,5.00,0.00,23.4,22.0,00.0,32.1,25.2,13.4,0000.0,0006.36,0001.53,0000.98
2023-03-11 17:10:00,,0816.4,5.01,0.00,23.4,22.0,00.0,32.1,25.2,13.5,0000.0,0006.40,0001.51,0001.00
2023-03-11 17:11:00,,0816.4,5.01,0.00,23.4,22.0,00.0,32.1,25.2,13.2,0000.0,0005.84,0001.51,0001.00
2023-03-11 17:12:00,,0816.5,5.00,0.00,23.4,22.0,00.0,32.1,25.2,13.1,0000.0,0005.61,0001.48,0001.01
2023-03-11 17:13:00,,0816.5,5.00,0.00,23.4,22.0,00.0,32.1,25.2,13.1,0000.0,0006.90,0001.52,0001.02
2023-03-11 17:14:00,,0816.5,5.00,0.00,23.4,22.0,00.0,32.1,25.2,13.1,0000.0,0007.63,0001.59,0001.03
2023-03-11 17:15:00,,0816.7,5.00,0.00,23.4,22.0,00.0,32.1,25.2,13.0,0000.0,0008.19,0001.61,0001.03
2023-03-11 17:16:00,,0816.6,5.00,0.00,23.4,22.0,00.0,32.1,25.2,12.9,0000.0,0008.24,0001.58,0001.02
2023-03-11 17:17:00,,0816.6,5.00,0.00,23.4,22.0,00.0,32.1,25.2,13.2,0000.0,0007.74,0001.62,0001.02
2023-03-11 17:18:00,,0816.6,5.00,0.00,23.4,22.1,00.0,32.1,25.2,13.0,0000.0,0007.52,0001.59,0001.01
2023-03-11 17:19:00,,0816.6,5.00,0.00,23.4,22.1,00.0,32.1,25.3,12.9,0000.0,0008.05,0001.53,0001.00
2023-03-11 17:20:00,,0816.6,5.00,0.00,23.4,22.2,00.0,32.1,25.3,12.8,0000.0,0008.38,0001.51,0000.98
2023-03-11 17:21:00,,0816.7,5.00,0.00,23.5,22.2,00.0,32.1,25.3,13.0,0000.0,0008.04,0001.48,0000.97
2023-03-11 17:22:00,,0816.9,5.00,0.00,23.5,22.2,00.0,32.1,25.3,13.0,0000.0,0007.96,0001.47,0000.97
2023-03-11 17:23:00,,0817.0,5.00,0.00,23.5,22.2,00.0,32.1,25.3,12.9,0000.0,0008.06,0001.50,0000.97
2023-03-11 17:24:00,,0816.9,5.00,0.00,23.5,22.2,00.0,32.1,25.3,12.8,0000.0,0007.86,0001.50,0000.98
2023-03-11 17:25:00,,0816.8,5.01,0.00,23.5,22.2,00.0,32.1,25.3,12.9,0000.0,0007.54,0001.47,0000.99
2023-03-11 17:26:00,,0816.7,5.01,0.00,23.5,22.2,00.0,32.1,25.3,12.9,0000.0,0006.97,0001.51,0001.00
2023-03-11 17:27:00,,0816.6,5.00,0.00,23.5,22.3,00.0,32.2,25.4,12.9,0000.0,0006.45,0001.55,0001.00
2023-03-11 17:28:00,,0816.6,5.00,0.00,23.5,22.3,00.0,32.2,25.4,13.0,0000.0,0006.33,0001.56,0001.01
2023-03-11 17:29:00,,0816.7,5.00,0.00,23.5,22.3,00.0,32.2,25.4,12.7,0000.0,0006.10,0001.56,0001.02
2023-03-11 17:30:00,,0817.3,5.00,0.00,23.5,22.3,00.0,32.2,25.4,12.6,0000.0,0005.18,0001.59,0001.02
2023-03-11 17:31:00,,0817.1,5.00,0.00,23.5,22.3,00.0,32.2,25.4,12.6,0000.0,0004.53,0001.58,0001.03
2023-03-11 17:32:00,,0816.9,5.00,0.00,23.5,22.3,00.0,32.2,25.4,12.5,0000.0,0004.53,0001.59,0001.04
2023-03-11 17:33:00,,0817.0,4.99,0.00,23.5,22.3,00.0,32.2,25.4,12.5,0000.0,0004.59,0001.62,0001.05
2023-03-11 17:34:00,,0816.8,5.00,0.00,23.6,22.4,00.0,32.2,25.4,12.5,0000.0,0004.50,0001.62,0001.05
2023-03-11 17:35:00,,0816.9,5.00,0.00,23.6,22.4,00.0,32.2,25.5,12.5,0000.0,0004.15,0001.63,0001.04
2023-03-11 17:36:00,,0816.6,5.00,0.00,23.6,22.3,00.0,32.2,25.4,12.4,0000.0,0003.53,0001.63,0001.03
2023-03-11 17:37:00,,0816.5,5.00,0.00,23.6,22.3,00.0,32.2,25.5,12.6,0000.0,0003.36,0001.58,0001.03
2023-03-11 17:38:00,,0816.4,5.00,0.00,23.6,22.3,00.0,32.2,25.5,12.8,0000.0,0003.33,0001.56,0001.04
2023-03-11 17:39:00,,0816.5,5.00,0.00,23.6,22.3,00.0,32.2,25.5,12.5,0000.0,0003.96,0001.55,0001.03
2023-03-11 17:40:00,,0816.4,5.00,0.00,23.6,22.2,00.0,32.2,25.5,12.6,0000.0,0004.27,0001.57,0001.03
2023-03-11 17:41:00,,0816.4,5.00,0.00,23.6,22.2,00.0,32.2,25.5,12.5,0000.0,0004.82,0001.59,0001.03
2023-03-11 17:42:00,,0816.3,5.01,0.00,23.6,22.2,00.0,32.2,25.5,12.3,0000.0,0005.22,0001.62,0001.04
2023-03-11 17:43:00,,0816.3,5.00,0.00,23.6,22.2,00.0,32.3,25.5,12.2,0000.0,0005.45,0001.66,0001.05
2023-03-11 17:44:00,,0816.4,4.99,0.00,23.6,22.2,00.0,32.3,25.4,12.5,0000.0,0006.31,0001.69,0001.04
2023-03-11 17:45:00,,0816.4,4.99,0.00,23.6,22.2,00.0,32.3,25.4,12.6,0000.0,0006.67,0001.72,0001.05
2023-03-11 17:46:00,,0816.4,5.00,0.00,23.6,22.3,00.0,32.3,25.4,12.3,0000.0,0006.61,0001.73,0001.06
2023-03-11 17:47:00,,0816.3,4.99,0.00,23.6,22.3,00.0,32.3,25.5,12.7,0000.0,0006.91,0001.75,0001.07
2023-03-11 17:48:00,,0816.3,5.00,0.00,23.6,22.2,00.0,32.3,25.5,12.5,0000.0,0007.50,0001.80,0001.07
2023-03-11 17:49:00,,0816.3,5.02,0.00,23.6,22.1,00.0,32.3,25.4,12.3,0000.0,0007.87,0001.86,0001.08
2023-03-11 17:50:00,,0816.4,5.00,0.00,23.6,22.0,00.0,32.3,25.3,12.4,0000.0,0008.16,0001.89,0001.09
2023-03-11 17:51:00,,0816.4,5.00,0.00,23.6,22.1,00.0,32.3,25.3,12.4,0000.0,0008.55,0001.92,0001.09
2023-03-11 17:52:00,,0816.3,4.99,0.00,23.5,22.0,00.0,32.3,25.3,11.0,0000.0,0009.09,0001.97,0001.08
2023-03-11 17:53:00,,0816.3,4.98,0.00,23.5,21.9,00.0,32.2,25.3,11.9,0000.0,0008.65,0001.94,0001.07
2023-03-11 17:54:00,,0816.3,5.01,0.00,23.5,21.9,00.0,32.2,25.2,12.5,0000.0,0008.64,0001.92,0001.07
2023-03-11 17:55:00,,0816.3,5.00,0.00,23.5,21.8,00.0,32.2,25.2,12.6,0000.0,0008.27,0001.86,0001.08
2023-03-11 17:56:00,,0816.4,5.01,0.00,23.5,21.8,00.0,32.2,25.2,12.4,0000.0,0008.12,0001.84,0001.09
2023-03-11 17:57:00,,0816.4,4.99,0.00,23.5,21.8,00.0,32.2,25.2,12.5,0000.0,0008.17,0001.84,0001.08
2023-03-11 17:58:00,,0816.5,4.98,0.00,23.5,21.8,00.0,32.2,25.2,12.1,0000.0,0008.15,0001.84,0001.08
2023-03-11 17:59:00,,0816.5,4.99,0.00,23.5,21.9,00.0,32.2,25.3,11.8,0000.0,0008.39,0001.80,0001.08
